Notices

What's New in latest Release from April 7th, 2021:

- Updated Glossary, including Speed of Maximum Gust, and Total Hourly Precipitation

- Updated national and regional climate services offices contacts and prices information

- Addition of station inventory lists for 1981-2010, 1971-2000, and 1961-1990 Normals.

If you haven't already, please take our survey and provide feedback about our website: https://eccc.sondage-survey.ca/f/LanguageSelection.aspx?s=442ca660-fcf1-47c0-95a9-59707d6fd709

Hourly Data Report for June 09, 2003

TORONTO CITY
ONTARIO

43°40'00.000" N
79°24'00.000" W
112.50 m
6158355
71508
XTO

Download Data

Hourly Data (June 2003)
Hourly Data Report for June 9, 2003
TIME
LST
Temp Definition
°C
Dew Point Definition
°C
Rel Hum Definition
%
Precip. Amount Definition
mm

Wind Dir Definition
10's deg

Wind Spd Definition
km/h
Visibility Definition
km
Stn Press Definition
kPa
Hmdx Definition


Wind Chill Definition


Weather Definition


00:00 13.2 13.1 99   LegendMM LegendMM LegendMM 98.91     LegendNANA
01:00 13.5 13.4 99   LegendMM LegendMM LegendMM 98.84     LegendNANA
02:00 13.5 13.4 99   LegendMM LegendMM LegendMM 98.83     LegendNANA
03:00 13.0 12.7 98   LegendMM LegendMM LegendMM 98.82     LegendNANA
04:00 13.0 12.7 98   LegendMM LegendMM LegendMM 98.83     LegendNANA
05:00 13.7 13.2 97   LegendMM LegendMM LegendMM 98.86     LegendNANA
06:00 15.1 13.7 91   LegendMM LegendMM LegendMM 98.91     LegendNANA
07:00 15.3 13.3 88   LegendMM LegendMM LegendMM 98.96     LegendNANA
08:00 16.8 12.8 77   LegendMM LegendMM LegendMM 99.01     LegendNANA
09:00 17.3 12.0 71   LegendMM LegendMM LegendMM 99.05     LegendNANA
10:00 18.0 12.5 70   LegendMM LegendMM LegendMM 99.06     LegendNANA
11:00 18.1 11.9 67   LegendMM LegendMM LegendMM 99.12     LegendNANA
12:00 19.9 13.1 65   LegendMM LegendMM LegendMM 99.14     LegendNANA
13:00 19.3 12.1 63   LegendMM LegendMM LegendMM 99.19     LegendNANA
14:00 20.5 12.5 60   LegendMM LegendMM LegendMM 99.21     LegendNANA
15:00 19.5 12.0 62   LegendMM LegendMM LegendMM 99.26     LegendNANA
16:00 19.7 12.2 62   LegendMM LegendMM LegendMM 99.35     LegendNANA
17:00 18.8 12.6 67   LegendMM LegendMM LegendMM 99.44     LegendNANA
18:00 18.5 12.5 68   LegendMM LegendMM LegendMM 99.52     LegendNANA
19:00 17.3 12.0 71   LegendMM LegendMM LegendMM 99.67     LegendNANA
20:00 16.3 11.3 72   LegendMM LegendMM LegendMM 99.74     LegendNANA
21:00 15.7 10.9 73   LegendMM LegendMM LegendMM 99.85     LegendNANA
22:00 14.9 10.9 77   LegendMM LegendMM LegendMM 99.94     LegendNANA
23:00 13.6 10.6 82   LegendMM LegendMM LegendMM 99.99     LegendNANA

Notes on Data Quality.

Legend

  • E = Estimated
  • M = Missing
  • NA = Not Available*
  • [empty] = Indicates an unobserved value
Date modified: